Location: Valley Falls
(35.0169°N, 81.9753°W)
Time: 20:50:43
(UTC+00:00)

ISS - Visible Passes

Search period start: 08 December 2022 00:00
Search period end: 18 December 2022 00:00
Orbit: 414 x 420 km, 51.6° (Epoch: 08 December)

Date Brightness Start Highest point End Pass type
(mag) Time Alt. Az. Time Alt. Az. Time Alt. Az.
08 Dec -0.5 23:56:29 10° W 23:58:11 13° SW 23:59:53 10° SSW visible
09 Dec -1.2 23:07:21 10° WNW 23:10:08 25° SW 23:12:54 10° S visible
15 Dec -1.0 11:46:34 10° S 11:49:19 24° SE 11:52:05 10° ENE visible
16 Dec -0.4 10:59:34 10° SSE 11:01:10 13° SE 11:02:44 10° E visible
17 Dec -3.7 11:45:51 10° SW 11:49:13 85° SE 11:52:34 10° NE visible
